Location: Asheville, NC
(35.6000°N, 82.5500°W)
Time: 01:22:41
(UTC-05:00)

Vanguard 2 Rocket - Pass Details

Date: 11 February 2018
Orbit: 555 x 3327 km, 32.9° (Epoch: 21 February)

Event Time Altitude Azimuth Distance (km) Brightness Sun altitude
Exits shadow 02:32:26 57° 103° (ESE) 3,681 9.7 -57.5°
Drops below altitude 10° 02:46:12 10° 83° (E) 5,769 11.3 -55.2°
Sets 02:50:08 0° 82° (E) 6,536 11.8 -54.5°
